Tracking 19908 objects as of 19-Oct-2019
HD Live streaming from Space Station
objects crossing your sky now

MICROSAT-R DEB


MICROSAT-R DEB is no longer on orbit


NORAD ID: 44198
Int'l Code: 2019-006CJ
Perigee: N/A
Apogee: N/A
Inclination: N/A
Period: N/A
Semi major axis: N/A
RCS: N/A
Launch date: January 24, 2019
Source: India (IND)
Launch site: SRIHARIKOTA (SRI)
Decay date: 2019-06-02

Note: This is SATELLITE DEBRIS
aabbcc
Your satellite tracking list
Your tracking list is empty




NASA's NSSDC Master Catalog

Two Line Element Set (TLE):
1 44198U 19006CJ  19152.92952513  .19288591  74233-6  37840-2 0  9998
2 44198  94.6334  41.6610 0021675 159.4045 200.8135 16.30954338  8328
Source of the keplerian elements: AFSPC